Time,TemperatureF,DewpointF,PressureIn,WindDirection,WindDirectionDegrees,WindSpeedMPH,WindSpeedGustMPH,Humidity,HourlyPrecipIn,Conditions,Clouds,dailyrainin,SolarRadiationWatts/m^2,SoftwareType,DateUTC
2013-01-13 00:00:00,54.1,52.7,30.02,ENE,70,0.0,0.0,95,0.00,,,0.00,0.00,VWS V14.01,2013-01-13 05:00:00,
2013-01-13 00:03:00,54.1,52.7,30.02,ENE,70,0.0,0.0,95,0.00,,,0.00,0.00,VWS V14.01,2013-01-13 05:03:00,
2013-01-13 00:08:00,54.2,52.8,30.02,ENE,70,0.0,0.0,95,0.00,,,0.00,0.00,VWS V14.01,2013-01-13 05:08:00,
2013-01-13 00:13:00,54.2,52.8,30.02,ENE,70,0.0,0.0,95,0.00,,,0.00,0.00,VWS V14.01,2013-01-13 05:13:00,
2013-01-13 00:18:00,54.2,52.8,30.02,ENE,70,0.0,0.0,95,0.00,,,0.00,0.00,VWS V14.01,2013-01-13 05:18:00,
2013-01-13 00:23:00,54.2,53.1,30.02,ENE,70,0.0,0.0,96,0.00,,,0.00,0.00,VWS V14.01,2013-01-13 05:23:00,
2013-01-13 00:28:00,54.4,53.3,30.02,ENE,70,0.0,0.0,96,0.00,,,0.00,0.00,VWS V14.01,2013-01-13 05:28:00,
2013-01-13 00:33:00,54.7,53.6,30.01,ENE,70,0.0,0.0,96,0.00,,,0.00,0.00,VWS V14.01,2013-01-13 05:33:00,
2013-01-13 00:38:00,54.8,53.7,30.01,ENE,70,0.0,0.0,96,0.00,,,0.00,0.00,VWS V14.01,2013-01-13 05:38:00,
2013-01-13 00:43:00,55.0,53.9,30.01,ENE,70,0.0,0.0,96,0.00,,,0.00,0.00,VWS V14.01,2013-01-13 05:43:00,
2013-01-13 00:48:00,55.0,53.9,30.02,ENE,70,0.0,0.0,96,0.00,,,0.00,0.00,VWS V14.01,2013-01-13 05:48:00,
2013-01-13 00:53:00,55.1,54.0,30.02,ENE,70,0.0,0.0,96,0.00,,,0.00,0.00,VWS V14.01,2013-01-13 05:53:00,
2013-01-13 00:58:00,55.3,54.2,30.02,ENE,70,0.0,0.0,96,0.00,,,0.00,0.00,VWS V14.01,2013-01-13 05:58:00,
2013-01-13 01:03:00,55.3,54.2,30.01,ENE,70,0.0,0.0,96,0.00,,,0.00,0.00,VWS V14.01,2013-01-13 06:03:00,
2013-01-13 01:08:00,55.3,54.2,30.01,ENE,70,0.0,0.0,96,0.00,,,0.00,0.00,VWS V14.01,2013-01-13 06:08:00,
2013-01-13 01:13:00,55.3,54.2,30.01,ENE,70,0.0,0.0,96,0.00,,,0.00,0.00,VWS V14.01,2013-01-13 06:13:00,
2013-01-13 01:18:00,55.3,54.2,30.02,ENE,70,0.0,0.0,96,0.00,,,0.00,0.00,VWS V14.01,2013-01-13 06:18:00,
2013-01-13 01:23:00,55.3,54.2,30.02,ENE,70,0.0,0.0,96,0.00,,,0.00,0.00,VWS V14.01,2013-01-13 06:23:00,
2013-01-13 01:28:00,55.3,54.2,30.02,ENE,70,0.0,0.0,96,0.00,,,0.00,0.00,VWS V14.01,2013-01-13 06:28:00,
2013-01-13 01:33:00,55.3,54.2,30.01,ENE,70,0.0,0.0,96,0.00,,,0.00,0.00,VWS V14.01,2013-01-13 06:33:00,
2013-01-13 01:38:00,55.3,54.2,30.01,ENE,70,0.0,0.0,96,0.00,,,0.00,0.00,VWS V14.01,2013-01-13 06:38:00,
2013-01-13 01:43:00,55.3,54.2,30.01,ENE,70,0.0,0.0,96,0.00,,,0.00,0.00,VWS V14.01,2013-01-13 06:43:00,
2013-01-13 01:48:00,55.3,54.2,30.01,ENE,70,0.0,0.0,96,0.00,,,0.00,0.00,VWS V14.01,2013-01-13 06:48:00,
2013-01-13 01:53:00,55.3,54.2,30.01,ENE,70,0.0,0.0,96,0.00,,,0.00,0.00,VWS V14.01,2013-01-13 06:53:00,
2013-01-13 01:58:00,55.4,54.3,30.01,ENE,70,0.0,0.0,96,0.00,,,0.00,0.00,VWS V14.01,2013-01-13 06:58:00,
2013-01-13 02:03:00,55.6,54.5,30.02,ENE,70,0.0,0.0,96,0.00,,,0.00,0.00,VWS V14.01,2013-01-13 07:03:00,
2013-01-13 02:08:00,55.7,54.6,30.02,ENE,70,0.0,0.0,96,0.00,,,0.00,0.00,VWS V14.01,2013-01-13 07:08:00,
2013-01-13 02:13:00,55.9,54.8,30.02,ENE,70,0.0,0.0,96,0.00,,,0.00,0.00,VWS V14.01,2013-01-13 07:13:00,
2013-01-13 02:18:00,56.0,54.9,30.02,ENE,70,0.0,0.0,96,0.00,,,0.00,0.00,VWS V14.01,2013-01-13 07:18:00,
2013-01-13 02:23:00,56.0,54.9,30.02,ENE,70,0.0,0.0,96,0.00,,,0.00,0.00,VWS V14.01,2013-01-13 07:23:00,
2013-01-13 02:28:00,56.0,54.9,30.02,ENE,70,0.0,0.0,96,0.00,,,0.00,0.00,VWS V14.01,2013-01-13 07:28:00,
2013-01-13 02:33:00,56.0,54.9,30.02,ENE,70,0.0,0.0,96,0.00,,,0.00,0.00,VWS V14.01,2013-01-13 07:33:00,
2013-01-13 02:38:00,56.0,54.9,30.02,ENE,70,0.0,0.0,96,0.00,,,0.00,0.00,VWS V14.01,2013-01-13 07:38:00,
2013-01-13 02:43:00,56.0,54.9,30.02,ENE,70,0.0,0.0,96,0.00,,,0.00,0.00,VWS V14.01,2013-01-13 07:43:00,
2013-01-13 02:48:00,56.0,54.9,30.02,ENE,70,0.0,0.0,96,0.01,,,0.01,0.00,VWS V14.01,2013-01-13 07:48:00,
2013-01-13 02:53:00,56.0,54.9,30.02,ENE,70,0.0,0.0,96,0.01,,,0.01,0.00,VWS V14.01,2013-01-13 07:53:00,
2013-01-13 02:58:00,56.0,54.9,30.02,ENE,70,0.0,0.0,96,0.01,,,0.01,0.00,VWS V14.01,2013-01-13 07:58:00,
2013-01-13 03:03:00,56.0,54.9,30.02,ENE,70,0.0,0.0,96,0.01,,,0.01,0.00,VWS V14.01,2013-01-13 08:03:00,
2013-01-13 03:08:00,56.0,54.9,30.02,ENE,70,0.0,0.0,96,0.01,,,0.01,0.00,VWS V14.01,2013-01-13 08:08:00,
2013-01-13 03:13:00,56.0,54.9,30.02,ENE,70,0.0,0.0,96,0.01,,,0.01,0.00,VWS V14.01,2013-01-13 08:13:00,
2013-01-13 03:18:00,56.0,54.9,30.01,ENE,70,0.0,0.0,96,0.01,,,0.01,0.00,VWS V14.01,2013-01-13 08:18:00,
2013-01-13 03:23:00,56.2,55.1,30.01,ENE,70,2.0,2.0,96,0.01,,,0.01,0.00,VWS V14.01,2013-01-13 08:23:00,
2013-01-13 03:28:00,56.3,55.2,30.01,ENE,70,0.0,0.0,96,0.01,,,0.01,0.00,VWS V14.01,2013-01-13 08:28:00,
2013-01-13 03:33:00,56.3,55.2,30.01,SE,140,1.0,1.0,96,0.01,,,0.01,0.00,VWS V14.01,2013-01-13 08:33:00,
2013-01-13 03:38:00,56.5,55.4,30.01,SE,138,0.0,2.0,96,0.01,,,0.01,0.00,VWS V14.01,2013-01-13 08:38:00,
2013-01-13 03:43:00,56.5,55.4,30.01,SE,138,2.0,2.0,96,0.01,,,0.01,0.00,VWS V14.01,2013-01-13 08:43:00,
2013-01-13 03:48:00,56.5,55.4,30.00,SE,138,0.0,0.0,96,0.00,,,0.01,0.00,VWS V14.01,2013-01-13 08:48:00,
2013-01-13 03:53:00,56.5,55.4,30.00,SE,138,0.0,0.0,96,0.00,,,0.01,0.00,VWS V14.01,2013-01-13 08:53:00,
2013-01-13 03:58:00,56.5,55.4,30.00,SE,138,0.0,0.0,96,0.00,,,0.01,0.00,VWS V14.01,2013-01-13 08:58:00,
2013-01-13 04:03:00,56.5,55.4,30.00,SE,138,0.0,0.0,96,0.00,,,0.01,0.00,VWS V14.01,2013-01-13 09:03:00,
2013-01-13 04:08:00,56.5,55.4,30.00,SE,138,0.0,0.0,96,0.00,,,0.01,0.00,VWS V14.01,2013-01-13 09:08:00,
2013-01-13 04:12:00,56.3,55.2,30.00,SE,138,2.0,2.0,96,0.00,,,0.01,0.00,VWS V14.01,2013-01-13 09:12:00,
2013-01-13 04:17:00,56.3,55.2,30.00,SE,138,0.0,0.0,96,0.00,,,0.01,0.00,VWS V14.01,2013-01-13 09:17:00,
2013-01-13 04:23:00,56.3,55.2,30.00,SE,138,0.0,0.0,96,0.00,,,0.01,0.00,VWS V14.01,2013-01-13 09:23:00,
2013-01-13 04:27:00,56.3,55.2,30.00,SE,138,0.0,0.0,96,0.00,,,0.01,0.00,VWS V14.01,2013-01-13 09:27:00,
2013-01-13 04:32:00,56.2,55.1,30.00,SE,138,0.0,0.0,96,0.00,,,0.01,0.00,VWS V14.01,2013-01-13 09:32:00,
2013-01-13 04:37:00,56.2,55.1,30.00,SE,138,0.0,0.0,96,0.00,,,0.01,0.00,VWS V14.01,2013-01-13 09:37:00,
2013-01-13 04:42:00,56.2,55.1,30.00,SE,138,0.0,0.0,96,0.00,,,0.01,0.00,VWS V14.01,2013-01-13 09:42:00,
2013-01-13 04:47:00,56.0,54.9,30.00,SE,138,0.0,0.0,96,0.00,,,0.01,0.00,VWS V14.01,2013-01-13 09:47:00,
2013-01-13 04:52:00,56.0,54.9,30.00,SE,138,1.0,1.0,96,0.00,,,0.01,0.00,VWS V14.01,2013-01-13 09:52:00,
2013-01-13 04:57:00,56.0,54.9,30.00,SE,138,0.0,0.0,96,0.00,,,0.01,0.00,VWS V14.01,2013-01-13 09:57:00,
2013-01-13 05:02:00,56.0,54.9,29.99,SE,138,0.0,0.0,96,0.00,,,0.01,0.00,VWS V14.01,2013-01-13 10:02:00,
2013-01-13 05:07:00,55.9,54.8,29.99,SE,138,0.0,0.0,96,0.00,,,0.01,0.00,VWS V14.01,2013-01-13 10:07:00,
2013-01-13 05:12:00,55.9,54.8,29.99,SE,138,0.0,0.0,96,0.00,,,0.01,0.00,VWS V14.01,2013-01-13 10:12:00,
2013-01-13 05:17:00,55.9,54.8,30.00,SE,138,0.0,0.0,96,0.00,,,0.01,0.00,VWS V14.01,2013-01-13 10:17:00,
2013-01-13 05:22:00,55.7,54.6,30.00,SE,138,0.0,0.0,96,0.00,,,0.01,0.00,VWS V14.01,2013-01-13 10:22:00,
2013-01-13 05:27:00,55.7,54.6,30.00,SE,138,0.0,0.0,96,0.00,,,0.01,0.00,VWS V14.01,2013-01-13 10:27:00,
2013-01-13 05:32:00,55.7,54.6,30.00,SE,138,0.0,0.0,96,0.00,,,0.01,0.00,VWS V14.01,2013-01-13 10:32:00,
2013-01-13 05:37:00,55.7,54.6,30.00,SE,138,0.0,0.0,96,0.00,,,0.01,0.00,VWS V14.01,2013-01-13 10:37:00,
2013-01-13 05:42:00,55.6,54.5,30.00,SE,139,0.0,1.0,96,0.00,,,0.01,0.00,VWS V14.01,2013-01-13 10:42:00,
2013-01-13 05:47:00,55.6,54.5,30.01,SE,139,0.0,0.0,96,0.00,,,0.01,0.00,VWS V14.01,2013-01-13 10:47:00,
2013-01-13 05:52:00,55.6,54.5,30.01,SE,139,0.0,2.0,96,0.00,,,0.01,0.00,VWS V14.01,2013-01-13 10:52:00,
2013-01-13 05:57:00,55.4,54.3,30.01,SE,139,0.0,0.0,96,0.00,,,0.01,0.00,VWS V14.01,2013-01-13 10:57:00,
2013-01-13 06:02:00,55.4,54.3,30.01,SE,139,0.0,0.0,96,0.00,,,0.01,0.00,VWS V14.01,2013-01-13 11:02:00,
2013-01-13 06:07:00,55.4,54.3,30.01,SE,139,0.0,1.0,96,0.00,,,0.01,0.00,VWS V14.01,2013-01-13 11:07:00,
2013-01-13 06:12:00,55.3,54.2,30.01,SE,139,0.0,0.0,96,0.00,,,0.01,0.00,VWS V14.01,2013-01-13 11:12:00,
2013-01-13 06:17:00,55.3,54.2,30.01,SE,139,0.0,0.0,96,0.00,,,0.01,0.00,VWS V14.01,2013-01-13 11:17:00,
2013-01-13 06:22:00,55.3,54.2,30.01,SE,139,0.0,0.0,96,0.00,,,0.01,0.00,VWS V14.01,2013-01-13 11:22:00,
2013-01-13 06:27:00,55.3,54.2,30.01,SE,139,0.0,0.0,96,0.00,,,0.01,0.00,VWS V14.01,2013-01-13 11:27:00,
2013-01-13 06:32:00,55.3,54.2,30.01,SE,139,0.0,0.0,96,0.00,,,0.01,0.00,VWS V14.01,2013-01-13 11:32:00,
2013-01-13 06:37:00,55.3,54.5,30.01,SE,139,0.0,0.0,97,0.00,,,0.01,0.00,VWS V14.01,2013-01-13 11:37:00,
2013-01-13 06:42:00,55.3,54.5,30.01,SE,139,1.0,1.0,97,0.00,,,0.01,0.00,VWS V14.01,2013-01-13 11:42:00,
2013-01-13 06:47:00,55.1,54.3,30.02,SE,139,2.0,3.0,97,0.00,,,0.01,0.00,VWS V14.01,2013-01-13 11:47:00,
2013-01-13 06:52:00,55.1,54.3,30.02,SE,139,0.0,0.0,97,0.00,,,0.01,0.00,VWS V14.01,2013-01-13 11:52:00,
2013-01-13 06:57:00,55.1,54.3,30.02,SE,139,2.0,3.0,97,0.00,,,0.01,0.00,VWS V14.01,2013-01-13 11:57:00,
2013-01-13 07:02:00,55.1,54.3,30.02,SE,139,0.0,0.0,97,0.00,,,0.01,0.00,VWS V14.01,2013-01-13 12:02:00,
2013-01-13 07:07:00,55.1,54.3,30.02,SE,139,0.0,0.0,97,0.00,,,0.01,0.00,VWS V14.01,2013-01-13 12:07:00,
2013-01-13 07:12:00,55.0,54.2,30.02,SE,139,0.0,2.0,97,0.00,,,0.01,0.00,VWS V14.01,2013-01-13 12:12:00,
2013-01-13 07:17:00,55.0,54.2,30.02,SE,139,2.0,3.0,97,0.00,,,0.01,0.00,VWS V14.01,2013-01-13 12:17:00,
2013-01-13 07:22:00,55.0,54.2,30.02,SE,139,0.0,0.0,97,0.00,,,0.01,0.00,VWS V14.01,2013-01-13 12:22:00,
2013-01-13 07:27:00,54.8,54.0,30.02,SE,139,0.0,0.0,97,0.00,,,0.01,0.00,VWS V14.01,2013-01-13 12:27:00,
2013-01-13 07:32:00,54.8,54.0,30.03,SE,139,1.0,1.0,97,0.00,,,0.01,0.00,VWS V14.01,2013-01-13 12:32:00,
2013-01-13 07:37:00,54.8,54.0,30.03,SE,139,3.0,3.0,97,0.00,,,0.01,5.00,VWS V14.01,2013-01-13 12:37:00,
2013-01-13 07:42:00,54.8,54.0,30.03,SE,139,0.0,1.0,97,0.00,,,0.01,9.00,VWS V14.01,2013-01-13 12:42:00,
2013-01-13 07:47:00,54.8,54.0,30.03,SE,139,0.0,1.0,97,0.00,,,0.01,12.00,VWS V14.01,2013-01-13 12:47:00,
2013-01-13 07:52:00,54.8,54.0,30.03,SE,139,0.0,0.0,97,0.00,,,0.01,14.00,VWS V14.01,2013-01-13 12:52:00,
2013-01-13 07:57:00,54.8,54.0,30.03,SE,139,0.0,0.0,97,0.00,,,0.01,16.00,VWS V14.01,2013-01-13 12:57:00,
2013-01-13 08:02:00,55.0,54.2,30.04,SE,139,0.0,0.0,97,0.00,,,0.01,19.00,VWS V14.01,2013-01-13 13:02:00,
2013-01-13 08:07:00,55.0,54.2,30.04,SE,140,0.0,0.0,97,0.00,,,0.01,32.00,VWS V14.01,2013-01-13 13:07:00,
2013-01-13 08:12:00,55.0,54.2,30.04,SE,140,0.0,0.0,97,0.00,,,0.01,39.00,VWS V14.01,2013-01-13 13:12:00,
2013-01-13 08:17:00,55.1,54.3,30.04,SSE,147,1.0,1.0,97,0.00,,,0.01,46.00,VWS V14.01,2013-01-13 13:17:00,
2013-01-13 08:22:00,55.1,54.3,30.04,SSE,147,0.0,0.0,97,0.00,,,0.01,40.00,VWS V14.01,2013-01-13 13:22:00,
2013-01-13 08:27:00,55.3,54.5,30.04,SSE,147,0.0,0.0,97,0.00,,,0.01,42.00,VWS V14.01,2013-01-13 13:27:00,
2013-01-13 08:32:00,55.3,54.5,30.04,SSE,153,3.0,3.0,97,0.00,,,0.01,23.00,VWS V14.01,2013-01-13 13:32:00,
2013-01-13 08:37:00,55.3,54.5,30.04,SSE,154,0.0,0.0,97,0.00,,,0.01,18.00,VWS V14.01,2013-01-13 13:37:00,
2013-01-13 08:42:00,55.3,54.5,30.04,SSE,155,1.0,2.0,97,0.00,,,0.01,37.00,VWS V14.01,2013-01-13 13:42:00,
2013-01-13 08:47:00,55.4,54.6,30.04,SSE,155,0.0,0.0,97,0.00,,,0.01,37.00,VWS V14.01,2013-01-13 13:47:00,
2013-01-13 08:52:00,55.4,54.6,30.04,SSE,155,0.0,2.0,97,0.00,,,0.01,32.00,VWS V14.01,2013-01-13 13:52:00,
2013-01-13 08:57:00,55.6,54.8,30.04,South,175,2.0,5.0,97,0.00,,,0.01,86.00,VWS V14.01,2013-01-13 13:57:00,
2013-01-13 09:02:00,55.7,54.9,30.04,SSW,194,5.0,6.0,97,0.00,,,0.01,91.00,VWS V14.01,2013-01-13 14:02:00,
2013-01-13 09:07:00,55.9,55.1,30.04,SSW,193,4.0,5.0,97,0.00,,,0.01,84.00,VWS V14.01,2013-01-13 14:07:00,
2013-01-13 09:12:00,55.9,55.1,30.04,SSW,193,1.0,3.0,97,0.00,,,0.01,98.00,VWS V14.01,2013-01-13 14:12:00,
2013-01-13 09:17:00,56.2,55.4,30.04,SSW,193,3.0,4.0,97,0.00,,,0.01,90.00,VWS V14.01,2013-01-13 14:17:00,
2013-01-13 09:22:00,56.3,55.5,30.04,SSW,193,0.0,0.0,97,0.00,,,0.01,84.00,VWS V14.01,2013-01-13 14:22:00,
2013-01-13 09:27:00,56.5,55.7,30.04,SSW,193,3.0,3.0,97,0.00,,,0.01,102.00,VWS V14.01,2013-01-13 14:27:00,
2013-01-13 09:32:00,56.6,55.8,30.04,SSW,193,0.0,2.0,97,0.00,,,0.01,134.00,VWS V14.01,2013-01-13 14:32:00,
2013-01-13 09:37:00,56.9,56.1,30.04,SSW,193,0.0,2.0,97,0.00,,,0.01,162.00,VWS V14.01,2013-01-13 14:37:00,
2013-01-13 09:42:00,57.2,56.4,30.04,SSW,193,0.0,3.0,97,0.00,,,0.01,192.00,VWS V14.01,2013-01-13 14:42:00,
2013-01-13 09:47:00,57.5,56.7,30.05,SSW,193,0.0,0.0,97,0.00,,,0.01,209.00,VWS V14.01,2013-01-13 14:47:00,
2013-01-13 09:52:00,58.0,57.2,30.05,SSW,193,0.0,0.0,97,0.00,,,0.01,181.00,VWS V14.01,2013-01-13 14:52:00,
2013-01-13 09:57:00,58.3,57.5,30.05,SSW,193,0.0,3.0,97,0.00,,,0.01,186.00,VWS V14.01,2013-01-13 14:57:00,
2013-01-13 10:02:00,58.4,57.6,30.05,SSW,193,4.0,4.0,97,0.00,,,0.01,213.00,VWS V14.01,2013-01-13 15:02:00,
2013-01-13 10:07:00,58.7,57.8,30.05,SSW,193,2.0,2.0,97,0.00,,,0.01,283.00,VWS V14.01,2013-01-13 15:07:00,
2013-01-13 10:12:00,59.2,58.3,30.05,SSW,193,0.0,0.0,97,0.00,,,0.01,322.00,VWS V14.01,2013-01-13 15:12:00,
2013-01-13 10:17:00,59.9,59.0,30.05,SSW,193,0.0,1.0,97,0.00,,,0.01,250.00,VWS V14.01,2013-01-13 15:17:00,
2013-01-13 10:22:00,60.2,59.3,30.05,SSW,193,0.0,1.0,97,0.00,,,0.01,338.00,VWS V14.01,2013-01-13 15:22:00,
2013-01-13 10:27:00,60.5,59.7,30.05,SSW,193,0.0,0.0,97,0.00,,,0.01,302.00,VWS V14.01,2013-01-13 15:27:00,
2013-01-13 10:32:00,60.9,60.0,30.05,SSW,193,0.0,2.0,97,0.00,,,0.01,373.00,VWS V14.01,2013-01-13 15:32:00,
2013-01-13 10:37:00,61.2,60.3,30.05,SSW,193,0.0,2.0,97,0.00,,,0.01,309.00,VWS V14.01,2013-01-13 15:37:00,
2013-01-13 10:42:00,61.3,60.4,30.05,SW,217,0.0,4.0,97,0.00,,,0.01,455.00,VWS V14.01,2013-01-13 15:42:00,
2013-01-13 10:47:00,62.0,61.1,30.04,SSW,212,0.0,1.0,97,0.00,,,0.01,487.00,VWS V14.01,2013-01-13 15:47:00,
2013-01-13 10:52:00,62.4,61.5,30.04,SW,231,2.0,4.0,97,0.00,,,0.01,446.00,VWS V14.01,2013-01-13 15:52:00,
2013-01-13 10:57:00,62.7,61.8,30.04,SSW,194,2.0,5.0,97,0.00,,,0.01,418.00,VWS V14.01,2013-01-13 15:57:00,
2013-01-13 11:02:00,62.7,61.8,30.04,WSW,257,0.0,3.0,97,0.00,,,0.01,346.00,VWS V14.01,2013-01-13 16:02:00,
2013-01-13 11:07:00,63.2,62.3,30.04,SSE,167,4.0,4.0,97,0.00,,,0.01,410.00,VWS V14.01,2013-01-13 16:07:00,
2013-01-13 11:12:00,63.7,62.5,30.04,SSE,162,5.0,5.0,96,0.00,,,0.01,585.00,VWS V14.01,2013-01-13 16:12:00,
2013-01-13 11:17:00,64.8,63.6,30.02,South,176,3.0,5.0,96,0.00,,,0.01,540.00,VWS V14.01,2013-01-13 16:17:00,
2013-01-13 11:22:00,65.5,64.0,30.02,SSW,197,7.0,7.0,95,0.00,,,0.01,262.00,VWS V14.01,2013-01-13 16:22:00,
2013-01-13 11:27:00,65.6,62.9,30.02,South,191,2.0,3.0,91,0.00,,,0.01,295.00,VWS V14.01,2013-01-13 16:27:00,
2013-01-13 11:32:00,66.0,62.3,30.01,SW,215,5.0,6.0,88,0.00,,,0.01,448.00,VWS V14.01,2013-01-13 16:32:00,
2013-01-13 11:37:00,66.6,61.6,30.01,West,260,2.0,5.0,84,0.00,,,0.01,541.00,VWS V14.01,2013-01-13 16:37:00,
2013-01-13 11:42:00,67.1,61.1,30.01,South,185,2.0,7.0,81,0.00,,,0.01,489.00,VWS V14.01,2013-01-13 16:42:00,
2013-01-13 11:47:00,67.9,61.2,30.01,WSW,238,0.0,3.0,79,0.00,,,0.01,452.00,VWS V14.01,2013-01-13 16:47:00,
2013-01-13 11:52:00,68.6,60.7,30.01,WSW,245,0.0,0.0,76,0.00,,,0.01,526.00,VWS V14.01,2013-01-13 16:52:00,
2013-01-13 11:57:00,69.3,60.7,30.01,SSW,203,6.0,8.0,74,0.00,,,0.01,547.00,VWS V14.01,2013-01-13 16:57:00,
2013-01-13 12:03:00,69.6,60.2,29.99,SSW,209,2.0,5.0,72,0.00,,,0.01,504.00,VWS V14.01,2013-01-13 17:03:00,
2013-01-13 12:08:00,70.6,60.3,29.99,SSE,153,5.0,5.0,70,0.00,,,0.01,513.00,VWS V14.01,2013-01-13 17:08:00,
2013-01-13 12:13:00,71.3,60.2,29.99,South,174,1.0,1.0,68,0.00,,,0.01,512.00,VWS V14.01,2013-01-13 17:13:00,
2013-01-13 12:18:00,72.0,60.5,29.98,West,267,0.0,2.0,67,0.00,,,0.01,575.00,VWS V14.01,2013-01-13 17:18:00,
2013-01-13 12:23:00,72.8,59.9,29.98,SSW,210,2.0,2.0,64,0.00,,,0.01,448.00,VWS V14.01,2013-01-13 17:23:00,
2013-01-13 12:28:00,73.3,60.0,29.98,SSW,193,4.0,4.0,63,0.00,,,0.01,480.00,VWS V14.01,2013-01-13 17:28:00,
2013-01-13 12:33:00,73.9,60.1,29.97,South,190,0.0,0.0,62,0.00,,,0.01,594.00,VWS V14.01,2013-01-13 17:33:00,
2013-01-13 12:38:00,74.2,59.0,29.97,SW,222,12.0,12.0,59,0.00,,,0.01,265.00,VWS V14.01,2013-01-13 17:38:00,
2013-01-13 12:43:00,74.2,59.4,29.97,SW,224,1.0,1.0,60,0.00,,,0.01,452.00,VWS V14.01,2013-01-13 17:43:00,
2013-01-13 12:48:00,74.4,59.2,29.97,SSW,201,5.0,6.0,59,0.00,,,0.01,403.00,VWS V14.01,2013-01-13 17:48:00,
2013-01-13 12:53:00,74.6,59.3,29.97,SSW,199,0.0,0.0,59,0.00,,,0.01,338.00,VWS V14.01,2013-01-13 17:53:00,
2013-01-13 12:58:00,74.9,59.6,29.97,SW,229,11.0,11.0,59,0.00,,,0.01,475.00,VWS V14.01,2013-01-13 17:58:00,
2013-01-13 13:03:00,74.9,58.7,29.97,West,262,5.0,9.0,57,0.00,,,0.01,594.00,VWS V14.01,2013-01-13 18:03:00,
2013-01-13 13:08:00,75.3,59.5,29.97,West,268,0.0,1.0,58,0.00,,,0.01,566.00,VWS V14.01,2013-01-13 18:08:00,
2013-01-13 13:13:00,76.0,59.7,29.97,SW,231,5.0,5.0,57,0.00,,,0.01,427.00,VWS V14.01,2013-01-13 18:13:00,
2013-01-13 13:18:00,76.0,59.7,29.96,SSW,206,3.0,3.0,57,0.00,,,0.01,577.00,VWS V14.01,2013-01-13 18:18:00,
2013-01-13 13:23:00,76.1,59.8,29.96,SW,229,5.0,5.0,57,0.00,,,0.01,568.00,VWS V14.01,2013-01-13 18:23:00,
2013-01-13 13:28:00,76.0,59.7,29.96,SSE,156,3.0,4.0,57,0.00,,,0.01,503.00,VWS V14.01,2013-01-13 18:28:00,
2013-01-13 13:33:00,76.1,59.8,29.96,South,182,6.0,6.0,57,0.00,,,0.01,510.00,VWS V14.01,2013-01-13 18:33:00,
2013-01-13 13:38:00,76.3,59.5,29.96,SSW,195,0.0,0.0,56,0.00,,,0.01,436.00,VWS V14.01,2013-01-13 18:38:00,
2013-01-13 13:43:00,76.1,59.8,29.96,SW,229,4.0,4.0,57,0.00,,,0.01,422.00,VWS V14.01,2013-01-13 18:43:00,
2013-01-13 13:48:00,76.3,59.5,29.96,South,170,4.0,7.0,56,0.00,,,0.01,339.00,VWS V14.01,2013-01-13 18:48:00,
2013-01-13 13:53:00,76.3,59.5,29.96,SSW,198,9.0,10.0,56,0.00,,,0.01,225.00,VWS V14.01,2013-01-13 18:53:00,
2013-01-13 13:58:00,76.0,59.2,29.96,West,269,0.0,0.0,56,0.00,,,0.01,202.00,VWS V14.01,2013-01-13 18:58:00,
2013-01-13 14:03:00,75.8,59.5,29.95,SSE,156,4.0,6.0,57,0.00,,,0.01,174.00,VWS V14.01,2013-01-13 19:03:00,
2013-01-13 14:08:00,75.6,59.3,29.95,SW,217,2.0,7.0,57,0.00,,,0.01,192.00,VWS V14.01,2013-01-13 19:08:00,
2013-01-13 14:13:00,75.6,59.3,29.95,SSW,203,5.0,9.0,57,0.00,,,0.01,162.00,VWS V14.01,2013-01-13 19:13:00,
2013-01-13 14:18:00,75.6,59.3,29.96,SSW,205,0.0,1.0,57,0.00,,,0.01,209.00,VWS V14.01,2013-01-13 19:18:00,
2013-01-13 14:23:00,75.8,59.5,29.96,SW,228,2.0,7.0,57,0.00,,,0.01,162.00,VWS V14.01,2013-01-13 19:23:00,
2013-01-13 14:28:00,75.8,59.5,29.96,SW,227,0.0,5.0,57,0.00,,,0.01,186.00,VWS V14.01,2013-01-13 19:28:00,
2013-01-13 14:33:00,75.6,58.8,29.95,SW,219,0.0,5.0,56,0.00,,,0.01,206.00,VWS V14.01,2013-01-13 19:33:00,
2013-01-13 14:38:00,75.6,59.8,29.95,West,260,0.0,4.0,58,0.00,,,0.01,230.00,VWS V14.01,2013-01-13 19:38:00,
2013-01-13 14:43:00,75.6,59.3,29.95,SW,214,2.0,3.0,57,0.00,,,0.01,213.00,VWS V14.01,2013-01-13 19:43:00,
2013-01-13 14:48:00,75.6,58.8,29.96,SSW,206,3.0,4.0,56,0.00,,,0.01,192.00,VWS V14.01,2013-01-13 19:48:00,
2013-01-13 14:53:00,75.4,59.1,29.96,SSW,196,4.0,6.0,57,0.00,,,0.01,77.00,VWS V14.01,2013-01-13 19:53:00,
2013-01-13 14:58:00,75.1,58.3,29.96,SSW,198,1.0,7.0,56,0.00,,,0.01,60.00,VWS V14.01,2013-01-13 19:58:00,
2013-01-13 15:03:00,74.9,58.7,29.96,SW,216,2.0,5.0,57,0.00,,,0.01,160.00,VWS V14.01,2013-01-13 20:03:00,
2013-01-13 15:08:00,74.7,59.0,29.96,SW,216,0.0,3.0,58,0.00,,,0.01,179.00,VWS V14.01,2013-01-13 20:08:00,
2013-01-13 15:13:00,74.7,59.0,29.96,South,184,2.0,7.0,58,0.00,,,0.01,91.00,VWS V14.01,2013-01-13 20:13:00,
2013-01-13 15:18:00,74.6,58.9,29.97,South,182,4.0,4.0,58,0.00,,,0.01,54.00,VWS V14.01,2013-01-13 20:18:00,
2013-01-13 15:23:00,74.4,59.2,29.97,South,191,1.0,4.0,59,0.00,,,0.01,105.00,VWS V14.01,2013-01-13 20:23:00,
2013-01-13 15:28:00,74.2,59.0,29.97,South,188,4.0,5.0,59,0.00,,,0.01,114.00,VWS V14.01,2013-01-13 20:28:00,
2013-01-13 15:33:00,74.2,59.4,29.98,SW,216,3.0,6.0,60,0.00,,,0.01,116.00,VWS V14.01,2013-01-13 20:33:00,
2013-01-13 15:38:00,74.2,59.4,29.98,South,175,2.0,2.0,60,0.00,,,0.01,79.00,VWS V14.01,2013-01-13 20:38:00,
2013-01-13 15:43:00,74.2,59.4,29.98,South,188,3.0,4.0,60,0.00,,,0.01,90.00,VWS V14.01,2013-01-13 20:43:00,
2013-01-13 15:48:00,74.0,59.2,29.97,SSW,193,1.0,1.0,60,0.00,,,0.01,104.00,VWS V14.01,2013-01-13 20:48:00,
2013-01-13 15:53:00,74.0,59.2,29.97,SSW,193,0.0,1.0,60,0.00,,,0.01,83.00,VWS V14.01,2013-01-13 20:53:00,
2013-01-13 15:58:00,74.0,59.7,29.97,SSW,193,2.0,2.0,61,0.00,,,0.01,74.00,VWS V14.01,2013-01-13 20:58:00,
2013-01-13 16:03:00,73.9,59.2,29.97,South,181,0.0,4.0,60,0.00,,,0.01,72.00,VWS V14.01,2013-01-13 21:03:00,
2013-01-13 16:08:00,73.7,59.4,29.97,SW,231,0.0,3.0,61,0.00,,,0.01,79.00,VWS V14.01,2013-01-13 21:08:00,
2013-01-13 16:13:00,73.7,58.5,29.97,SW,231,0.0,0.0,59,0.00,,,0.01,76.00,VWS V14.01,2013-01-13 21:13:00,
2013-01-13 16:18:00,73.5,58.3,29.98,WSW,239,1.0,5.0,59,0.00,,,0.01,74.00,VWS V14.01,2013-01-13 21:18:00,
2013-01-13 16:23:00,73.3,57.7,29.98,SSW,212,0.0,3.0,58,0.00,,,0.01,70.00,VWS V14.01,2013-01-13 21:23:00,
2013-01-13 16:28:00,73.3,57.7,29.98,WSW,245,0.0,0.0,58,0.00,,,0.01,81.00,VWS V14.01,2013-01-13 21:28:00,
2013-01-13 16:33:00,73.2,58.0,29.97,NW,307,0.0,4.0,59,0.00,,,0.01,58.00,VWS V14.01,2013-01-13 21:33:00,
2013-01-13 16:38:00,73.0,57.8,29.97,NW,307,0.0,0.0,59,0.00,,,0.01,47.00,VWS V14.01,2013-01-13 21:38:00,
2013-01-13 16:43:00,72.8,57.7,29.97,West,273,0.0,0.0,59,0.00,,,0.01,42.00,VWS V14.01,2013-01-13 21:43:00,
2013-01-13 16:48:00,72.7,57.6,29.98,West,273,0.0,0.0,59,0.00,,,0.01,42.00,VWS V14.01,2013-01-13 21:48:00,
2013-01-13 16:53:00,72.3,58.1,29.98,West,273,0.0,0.0,61,0.00,,,0.01,39.00,VWS V14.01,2013-01-13 21:53:00,
2013-01-13 16:58:00,72.0,57.8,29.98,West,273,0.0,0.0,61,0.00,,,0.01,35.00,VWS V14.01,2013-01-13 21:58:00,
2013-01-13 17:03:00,71.5,58.3,29.99,West,273,0.0,0.0,63,0.00,,,0.01,28.00,VWS V14.01,2013-01-13 22:03:00,
2013-01-13 17:08:00,71.1,58.3,29.99,SE,140,0.0,2.0,64,0.00,,,0.01,26.00,VWS V14.01,2013-01-13 22:08:00,
2013-01-13 17:13:00,70.8,58.5,29.99,South,177,0.0,4.0,65,0.00,,,0.01,14.00,VWS V14.01,2013-01-13 22:13:00,
2013-01-13 17:18:00,70.4,58.5,29.99,South,177,3.0,3.0,66,0.00,,,0.01,0.00,VWS V14.01,2013-01-13 22:18:00,
2013-01-13 17:23:00,70.1,58.7,29.99,South,177,0.0,0.0,67,0.00,,,0.01,0.00,VWS V14.01,2013-01-13 22:23:00,
2013-01-13 17:28:00,69.8,58.8,29.99,South,177,0.0,0.0,68,0.00,,,0.01,0.00,VWS V14.01,2013-01-13 22:28:00,
2013-01-13 17:33:00,69.1,58.1,29.98,South,177,0.0,0.0,68,0.00,,,0.01,0.00,VWS V14.01,2013-01-13 22:33:00,
2013-01-13 17:38:00,68.6,58.4,29.98,South,177,0.0,0.0,70,0.00,,,0.01,0.00,VWS V14.01,2013-01-13 22:38:00,
2013-01-13 17:43:00,67.9,58.2,29.98,South,177,0.0,0.0,71,0.00,,,0.01,0.00,VWS V14.01,2013-01-13 22:43:00,
2013-01-13 17:48:00,67.3,58.0,29.98,South,177,0.0,0.0,72,0.00,,,0.01,0.00,VWS V14.01,2013-01-13 22:48:00,
2013-01-13 17:53:00,66.6,57.7,29.98,South,177,0.0,1.0,73,0.00,,,0.01,0.00,VWS V14.01,2013-01-13 22:53:00,
2013-01-13 17:58:00,66.1,57.6,29.98,South,177,2.0,3.0,74,0.00,,,0.01,0.00,VWS V14.01,2013-01-13 22:58:00,
2013-01-13 18:03:00,65.8,58.0,29.98,South,177,3.0,4.0,76,0.00,,,0.01,0.00,VWS V14.01,2013-01-13 23:03:00,
2013-01-13 18:08:00,65.6,57.8,29.98,South,177,0.0,1.0,76,0.00,,,0.01,0.00,VWS V14.01,2013-01-13 23:08:00,
2013-01-13 18:13:00,65.5,57.7,29.98,South,177,0.0,2.0,76,0.00,,,0.01,0.00,VWS V14.01,2013-01-13 23:13:00,
2013-01-13 18:18:00,65.3,57.9,29.98,South,177,0.0,1.0,77,0.00,,,0.01,0.00,VWS V14.01,2013-01-13 23:18:00,
2013-01-13 18:23:00,65.2,57.8,29.98,South,177,0.0,0.0,77,0.00,,,0.01,0.00,VWS V14.01,2013-01-13 23:23:00,
2013-01-13 18:28:00,65.0,58.0,29.98,South,177,0.0,1.0,78,0.00,,,0.01,0.00,VWS V14.01,2013-01-13 23:28:00,
2013-01-13 18:33:00,64.8,57.8,29.98,South,177,0.0,0.0,78,0.00,,,0.01,0.00,VWS V14.01,2013-01-13 23:33:00,
2013-01-13 18:38:00,64.8,57.8,29.98,South,177,1.0,1.0,78,0.00,,,0.01,0.00,VWS V14.01,2013-01-13 23:38:00,
2013-01-13 18:43:00,64.7,58.0,29.98,South,177,0.0,1.0,79,0.00,,,0.01,0.00,VWS V14.01,2013-01-13 23:43:00,
2013-01-13 18:48:00,64.7,58.0,29.98,South,177,0.0,2.0,79,0.00,,,0.01,0.00,VWS V14.01,2013-01-13 23:48:00,
2013-01-13 18:53:00,64.7,58.0,29.98,South,178,4.0,4.0,79,0.00,,,0.01,0.00,VWS V14.01,2013-01-13 23:53:00,
2013-01-13 18:58:00,64.7,58.0,29.98,South,178,0.0,0.0,79,0.00,,,0.01,0.00,VWS V14.01,2013-01-13 23:58:00,
2013-01-13 19:03:00,64.7,58.0,29.99,WSW,248,0.0,4.0,79,0.00,,,0.01,0.00,VWS V14.01,2013-01-14 00:03:00,
2013-01-13 19:08:00,64.7,58.0,29.99,South,187,3.0,4.0,79,0.00,,,0.01,0.00,VWS V14.01,2013-01-14 00:08:00,
2013-01-13 19:13:00,64.7,57.7,29.99,South,187,0.0,0.0,78,0.00,,,0.01,0.00,VWS V14.01,2013-01-14 00:13:00,
2013-01-13 19:18:00,64.8,57.8,29.98,South,187,0.0,1.0,78,0.00,,,0.01,0.00,VWS V14.01,2013-01-14 00:18:00,
2013-01-13 19:23:00,64.8,57.8,29.98,SSW,213,3.0,4.0,78,0.00,,,0.01,0.00,VWS V14.01,2013-01-14 00:23:00,
2013-01-13 19:28:00,65.0,58.0,29.98,SSW,200,0.0,2.0,78,0.00,,,0.01,0.00,VWS V14.01,2013-01-14 00:28:00,
2013-01-13 19:33:00,64.8,57.8,29.98,SSW,201,3.0,4.0,78,0.00,,,0.01,0.00,VWS V14.01,2013-01-14 00:33:00,
2013-01-13 19:38:00,64.8,57.8,29.98,SSW,201,0.0,5.0,78,0.00,,,0.01,0.00,VWS V14.01,2013-01-14 00:38:00,
2013-01-13 19:43:00,64.7,57.7,29.98,SSW,202,1.0,3.0,78,0.00,,,0.01,0.00,VWS V14.01,2013-01-14 00:43:00,
2013-01-13 19:48:00,64.5,57.5,29.97,SSW,201,1.0,4.0,78,0.00,,,0.01,0.00,VWS V14.01,2013-01-14 00:48:00,
2013-01-13 19:53:00,64.5,57.8,29.97,SSW,201,0.0,4.0,79,0.00,,,0.01,0.00,VWS V14.01,2013-01-14 00:53:00,
2013-01-13 19:58:00,64.5,57.8,29.97,SW,220,3.0,4.0,79,0.00,,,0.01,0.00,VWS V14.01,2013-01-14 00:58:00,
2013-01-13 20:03:00,64.5,57.8,29.97,SW,219,4.0,4.0,79,0.00,,,0.01,0.00,VWS V14.01,2013-01-14 01:03:00,
2013-01-13 20:08:00,64.5,57.8,29.97,South,191,1.0,3.0,79,0.00,,,0.01,0.00,VWS V14.01,2013-01-14 01:08:00,
2013-01-13 20:13:00,64.5,57.8,29.97,South,191,1.0,2.0,79,0.00,,,0.01,0.00,VWS V14.01,2013-01-14 01:13:00,
2013-01-13 20:18:00,64.5,57.8,29.97,South,191,3.0,3.0,79,0.00,,,0.01,0.00,VWS V14.01,2013-01-14 01:18:00,
2013-01-13 20:23:00,64.2,57.6,29.97,South,191,0.0,3.0,79,0.00,,,0.01,0.00,VWS V14.01,2013-01-14 01:23:00,
2013-01-13 20:28:00,63.9,57.3,29.97,South,191,0.0,0.0,79,0.00,,,0.01,0.00,VWS V14.01,2013-01-14 01:28:00,
2013-01-13 20:33:00,63.4,56.8,29.98,South,191,0.0,0.0,79,0.00,,,0.01,0.00,VWS V14.01,2013-01-14 01:33:00,
2013-01-13 20:38:00,62.9,56.6,29.98,South,191,3.0,3.0,80,0.00,,,0.01,0.00,VWS V14.01,2013-01-14 01:38:00,
2013-01-13 20:43:00,62.4,56.5,29.98,South,191,0.0,0.0,81,0.00,,,0.01,0.00,VWS V14.01,2013-01-14 01:43:00,
2013-01-13 20:48:00,62.0,56.5,29.97,South,191,1.0,2.0,82,0.00,,,0.01,0.00,VWS V14.01,2013-01-14 01:48:00,
2013-01-13 20:53:00,61.8,56.6,29.97,South,191,1.0,1.0,83,0.00,,,0.01,0.00,VWS V14.01,2013-01-14 01:53:00,
2013-01-13 20:58:00,61.3,56.4,29.97,South,191,0.0,3.0,84,0.00,,,0.01,0.00,VWS V14.01,2013-01-14 01:58:00,
2013-01-13 21:03:00,61.2,56.7,29.98,South,191,0.0,1.0,85,0.00,,,0.01,0.00,VWS V14.01,2013-01-14 02:03:00,
2013-01-13 21:08:00,61.0,56.5,29.98,South,191,1.0,1.0,85,0.00,,,0.01,0.00,VWS V14.01,2013-01-14 02:08:00,
2013-01-13 21:13:00,60.9,56.7,29.98,South,191,0.0,1.0,86,0.00,,,0.01,0.00,VWS V14.01,2013-01-14 02:13:00,
2013-01-13 21:18:00,60.7,56.5,29.97,South,191,0.0,0.0,86,0.00,,,0.01,0.00,VWS V14.01,2013-01-14 02:18:00,
2013-01-13 21:23:00,60.9,57.0,29.97,South,191,3.0,4.0,87,0.00,,,0.01,0.00,VWS V14.01,2013-01-14 02:23:00,
2013-01-13 21:28:00,60.9,57.0,29.97,South,191,3.0,3.0,87,0.00,,,0.01,0.00,VWS V14.01,2013-01-14 02:28:00,
2013-01-13 21:33:00,60.9,57.0,29.98,South,191,2.0,4.0,87,0.00,,,0.01,0.00,VWS V14.01,2013-01-14 02:33:00,
2013-01-13 21:38:00,61.0,57.4,29.98,South,191,3.0,3.0,88,0.00,,,0.01,0.00,VWS V14.01,2013-01-14 02:38:00,
2013-01-13 21:43:00,61.3,57.7,29.98,SSW,203,3.0,5.0,88,0.00,,,0.01,0.00,VWS V14.01,2013-01-14 02:43:00,
2013-01-13 21:48:00,61.6,57.7,29.98,SW,224,1.0,4.0,87,0.00,,,0.01,0.00,VWS V14.01,2013-01-14 02:48:00,
2013-01-13 21:53:00,62.3,58.1,29.98,WSW,240,2.0,5.0,86,0.00,,,0.01,0.00,VWS V14.01,2013-01-14 02:53:00,
2013-01-13 21:58:00,62.6,58.0,29.98,WSW,238,0.0,2.0,85,0.00,,,0.01,0.00,VWS V14.01,2013-01-14 02:58:00,
2013-01-13 22:03:00,62.7,57.8,29.99,South,191,4.0,4.0,84,0.00,,,0.01,0.00,VWS V14.01,2013-01-14 03:03:00,
2013-01-13 22:08:00,63.1,57.9,29.99,South,188,3.0,4.0,83,0.00,,,0.01,0.00,VWS V14.01,2013-01-14 03:08:00,
2013-01-13 22:13:00,63.2,57.6,29.99,SSW,200,0.0,3.0,82,0.00,,,0.01,0.00,VWS V14.01,2013-01-14 03:13:00,
2013-01-13 22:18:00,63.5,57.6,29.98,South,189,4.0,9.0,81,0.00,,,0.01,0.00,VWS V14.01,2013-01-14 03:18:00,
2013-01-13 22:23:00,63.9,57.6,29.98,SW,219,6.0,11.0,80,0.00,,,0.01,0.00,VWS V14.01,2013-01-14 03:23:00,
2013-01-13 22:28:00,64.0,57.7,29.98,SW,231,0.0,4.0,80,0.00,,,0.01,0.00,VWS V14.01,2013-01-14 03:28:00,
2013-01-13 22:33:00,64.0,57.7,29.99,SSW,205,5.0,6.0,80,0.00,,,0.01,0.00,VWS V14.01,2013-01-14 03:33:00,
2013-01-13 22:38:00,64.0,57.7,29.99,SSW,200,0.0,3.0,80,0.00,,,0.01,0.00,VWS V14.01,2013-01-14 03:38:00,
2013-01-13 22:43:00,64.0,57.7,29.99,South,191,2.0,5.0,80,0.00,,,0.01,0.00,VWS V14.01,2013-01-14 03:43:00,
2013-01-13 22:48:00,63.9,57.6,29.99,South,191,3.0,5.0,80,0.00,,,0.01,0.00,VWS V14.01,2013-01-14 03:48:00,
2013-01-13 22:53:00,63.9,57.6,29.99,WSW,238,0.0,6.0,80,0.00,,,0.01,0.00,VWS V14.01,2013-01-14 03:53:00,
2013-01-13 22:58:00,63.9,57.6,29.99,SSW,206,5.0,5.0,80,0.00,,,0.01,0.00,VWS V14.01,2013-01-14 03:58:00,
2013-01-13 23:03:00,64.0,57.7,29.99,SW,236,1.0,4.0,80,0.00,,,0.01,0.00,VWS V14.01,2013-01-14 04:03:00,
2013-01-13 23:08:00,64.0,57.4,29.99,SSW,197,4.0,6.0,79,0.00,,,0.01,0.00,VWS V14.01,2013-01-14 04:08:00,
2013-01-13 23:13:00,64.0,57.4,29.99,SW,224,0.0,2.0,79,0.00,,,0.01,0.00,VWS V14.01,2013-01-14 04:13:00,
2013-01-13 23:18:00,64.0,57.4,29.99,SSW,194,3.0,9.0,79,0.00,,,0.01,0.00,VWS V14.01,2013-01-14 04:18:00,
2013-01-13 23:23:00,64.2,57.6,29.99,SW,217,1.0,6.0,79,0.00,,,0.01,0.00,VWS V14.01,2013-01-14 04:23:00,
2013-01-13 23:28:00,64.2,57.6,29.99,WSW,254,6.0,6.0,79,0.00,,,0.01,0.00,VWS V14.01,2013-01-14 04:28:00,
2013-01-13 23:33:00,64.2,57.6,29.99,West,280,2.0,4.0,79,0.00,,,0.01,0.00,VWS V14.01,2013-01-14 04:33:00,
2013-01-13 23:38:00,64.2,57.6,29.99,South,190,4.0,7.0,79,0.00,,,0.01,0.00,VWS V14.01,2013-01-14 04:38:00,
2013-01-13 23:43:00,64.2,57.6,29.99,SW,223,0.0,2.0,79,0.00,,,0.01,0.00,VWS V14.01,2013-01-14 04:43:00,
2013-01-13 23:48:00,64.2,57.6,30.00,SSW,192,5.0,6.0,79,0.00,,,0.01,0.00,VWS V14.01,2013-01-14 04:48:00,
2013-01-13 23:53:00,64.2,57.6,30.00,SSW,210,1.0,3.0,79,0.00,,,0.01,0.00,VWS V14.01,2013-01-14 04:53:00,
2013-01-13 23:58:00,64.2,57.6,30.00,SSW,196,3.0,7.0,79,0.00,,,0.01,0.00,VWS V14.01,2013-01-14 04:58:00,